Content
SEND FEEDBACK

Daily
Averages
Monthly
Summary
United States of America

MERIZO, GUAM


Home > North America > United States > Guam
Elevation: 3 meters     Latitude: 13 14N     Longitude: 144 39E

WEATHER
 
SELECT A DAY
Number of Records: 352,517;   Date Range: 1/1/95 - 10/30/14
 
SHARE

PRINT THIS DATA

[ ← Previous Day ]
WEATHER ALMANAC - 17 JANUARY, 2013
[ Next Day → ]
[ °F ]   °C
Weather ElementAverageHighLow
Temperature25.6 °C29.2 °C (1:55 pm)22 °C (7:10 pm)
Dewpoint21.9 °C24 °C (12:24 am)19 °C (7:10 pm)
Humidity80.7 %94 % (12:24 am)64 % (8:55 am)
Barometer1010.5 hPa1012.5 hPa (8:55 am)1008.5 hPa (1:55 pm)
Wind Speed22 km/h31.5 km/h (11:26 am)
Wind Gust33.3 km/h (12:55 pm)
Weather ElementAverage
Visibility16.1 km
Wind DirectionENE (66.2 °)

Weather ElementTotal
Precipitation---
Cooling Degree Days7.3 (Base 18.3)
Growing Degree Days15.6 (Base 10)
Averaged from 63 records on 17 January, 2013
WEATHER CONDITIONS BREAKOUT
WIND DIRECTION BREAKOUT
WEATHER BY HOUR - 17 JANUARY, 2013
[ °F ]   °C
Local TimeTemperatureDewpointHumidityBarometerVisibilityWind DirectionWind SpeedGust SpeedPrecipitationEventsConditions
12:24 AM25 °C24 °C94 %1011.2 hPa16.1 kmNE (50°)18.5 km/hScattered Clouds
12:27 AM25 °C24 °C94 %1011.2 hPa16.1 kmNE (50°)18.5 km/hMostly Cloudy
12:55 AM25.1 °C23.5 °C91 %1011.2 hPa16.1 kmNE (50°)20.4 km/hMostly Cloudy
1:02 AM25 °C24 °C94 %1011.2 hPa16.1 kmNE (50°)18.5 km/hScattered Clouds
1:03 AM25 °C24 °C94 %1011.2 hPa16.1 kmENE (60°)18.5 km/hMostly Cloudy
1:06 AM25 °C24 °C94 %1011.2 hPa16.1 kmNE (50°)18.5 km/hScattered Clouds
1:29 AM25 °C24 °C94 %1011.2 hPa16.1 kmNE (50°)18.5 km/hMostly Cloudy
1:35 AM25 °C24 °C94 %1011.2 hPa16.1 kmENE (60°)20.4 km/hScattered Clouds
1:55 AM24.9 °C23.3 °C91 %1011.2 hPa16.1 kmENE (60°)18.5 km/hScattered Clouds
2:55 AM22.4 °C20.7 °C90 %1011.2 hPa16.1 kmENE (60°)16.7 km/hPartly Cloudy
3:09 AM24 °C23 °C94 %1010.8 hPa16.1 kmENE (60°)16.7 km/hMostly Cloudy
3:21 AM25 °C23 °C89 %1010.8 hPa16.1 kmENE (60°)16.7 km/hScattered Clouds
3:55 AM24.4 °C22.7 °C90 %1010.8 hPa16.1 kmENE (60°)16.7 km/hPartly Cloudy
4:31 AM24 °C22 °C89 %1010.5 hPa16.1 kmENE (60°)18.5 km/hMostly Cloudy
4:33 AM24 °C22 °C89 %1010.5 hPa16.1 kmENE (60°)18.5 km/hScattered Clouds
4:55 AM24 °C19.7 °C77 %1010.8 hPa16.1 kmENE (60°)22.2 km/hScattered Clouds
5:55 AM23.5 °C21.7 °C90 %1010.8 hPa16.1 kmEast (90°)18.5 km/hMostly Cloudy
6:00 AM24 °C22 °C89 %1010.8 hPa16.1 kmEast (80°)22.2 km/hScattered Clouds
6:10 AM24 °C22 °C89 %1010.8 hPa16.1 kmEast (80°)24.1 km/hMostly Cloudy
6:26 AM24 °C22 °C89 %1011.2 hPa16.1 kmEast (80°)22.2 km/hScattered Clouds
6:31 AM24 °C22 °C89 %1011.2 hPa16.1 kmENE (70°)20.4 km/hMostly Cloudy
6:45 AM24 °C21 °C83 %1011.2 hPa16.1 kmEast (80°)24.1 km/hScattered Clouds
6:55 AM24 °C19.6 °C76 %1011.2 hPa16.1 kmENE (70°)20.4 km/hScattered Clouds
7:50 AM25 °C21 °C78 %1011.9 hPa16.1 kmEast (80°)20.4 km/hMostly Cloudy
7:55 AM23.8 °C20.8 °C83 %1011.9 hPa16.1 kmEast (80°)22.2 km/hMostly Cloudy
8:04 AM26 °C20 °C69 %1011.9 hPa16.1 kmEast (80°)29.6 km/hScattered Clouds
8:55 AM27 °C19.6 °C64 %1012.5 hPa16.1 kmEast (80°)25.9 km/hScattered Clouds
9:18 AM27 °C20 °C65 %1012.5 hPa16.1 kmENE (70°)24.1 km/hMostly Cloudy
9:21 AM27 °C20 °C65 %1012.5 hPa16.1 kmEast (80°)25.9 km/hScattered Clouds
9:55 AM28.1 °C23.1 °C74 %1012.2 hPa16.1 kmEast (80°)24.1 km/hScattered Clouds
10:55 AM25.7 °C20.9 °C75 %1011.5 hPa16.1 kmEast (80°)25.9 km/hScattered Clouds
11:18 AM29 °C23 °C70 %1011.2 hPa16.1 kmEast (80°)24.1 km/hMostly Cloudy
11:22 AM29 °C23 °C70 %1011.2 hPa16.1 kmENE (70°)25.9 km/hScattered Clouds
11:26 AM29 °C23 °C70 %1010.8 hPa16.1 kmENE (70°)31.5 km/hMostly Cloudy
11:37 AM29 °C23 °C70 %1010.8 hPa16.1 kmEast (80°)29.6 km/hScattered Clouds
11:55 AM28.9 °C23.1 °C71 %1010.2 hPa16.1 kmEast (80°)27.8 km/hPartly Cloudy
12:55 PM29 °C23.3 °C71 %1009.1 hPa16.1 kmEast (80°)24.1 km/h33.3 km/hPartly Cloudy
1:55 PM29.2 °C22.9 °C69 %1008.5 hPa16.1 kmENE (60°)24.1 km/hPartly Cloudy
2:15 PM29 °C23 °C70 %1008.5 hPa16.1 kmENE (60°)24.1 km/hMostly Cloudy
2:18 PM29 °C23 °C70 %1008.5 hPa16.1 kmENE (60°)24.1 km/hScattered Clouds
2:55 PM28.9 °C22.6 °C69 %1008.5 hPa16.1 kmENE (60°)25.9 km/hScattered Clouds
3:55 PM25.6 °C19.9 °C71 %1008.8 hPa16.1 kmENE (60°)25.9 km/hPartly Cloudy
4:29 PM28 °C23 °C74 %1009.1 hPa16.1 kmENE (60°)22.2 km/hMostly Cloudy
4:33 PM28 °C23 °C74 %1009.1 hPa16.1 kmENE (60°)25.9 km/hScattered Clouds
4:37 PM28 °C23 °C74 %1009.1 hPa16.1 kmENE (60°)20.4 km/hMostly Cloudy
4:40 PM28 °C23 °C74 %1009.1 hPa16.1 kmENE (60°)22.2 km/hScattered Clouds
4:42 PM28 °C23 °C74 %1009.1 hPa16.1 kmENE (60°)24.1 km/hMostly Cloudy
4:51 PM26 °C22 °C78 %1009.5 hPa16.1 kmENE (60°)24.1 km/hScattered Clouds
4:55 PM26.3 °C21.4 °C74 %1009.5 hPa16.1 kmENE (70°)25.9 km/hScattered Clouds
5:55 PM25.3 °C21.8 °C81 %1010.2 hPa16.1 kmENE (70°)20.4 km/hScattered Clouds
6:55 PM22.4 °C19.3 °C83 %1010.5 hPa16.1 kmENE (60°)18.5 km/hScattered Clouds
7:00 PM23 °C20 °C83 %1010.5 hPa16.1 kmENE (60°)22.2 km/hMostly Cloudy
7:10 PM22 °C19 °C83 %1010.8 hPa16.1 kmENE (70°)20.4 km/hScattered Clouds
7:14 PM22 °C19 °C83 %1010.8 hPa16.1 kmENE (60°)16.7 km/hMostly Cloudy
7:22 PM22 °C19 °C83 %1010.8 hPa16.1 kmENE (70°)18.5 km/hScattered Clouds
7:55 PM22.7 °C19.6 °C83 %1011.2 hPa16.1 kmENE (60°)20.4 km/hPartly Cloudy
8:55 PM25 °C21.9 °C83 %1010.8 hPa16.1 kmENE (60°)20.4 km/hPartly Cloudy
9:21 PM25 °C22 °C83 %1010.8 hPa16.1 kmENE (70°)22.2 km/hMostly Cloudy
9:55 PM25.5 °C22.5 °C83 %1010.5 hPa16.1 kmENE (70°)24.1 km/hScattered Clouds
10:55 PM25.3 °C21.7 °C80 %1010.5 hPa16.1 kmENE (70°)22.2 km/hScattered Clouds
11:37 PM25 °C22 °C83 %1010.2 hPa16.1 kmENE (60°)20.4 km/hMostly Cloudy
11:38 PM25 °C22 °C83 %1010.2 hPa16.1 kmENE (60°)20.4 km/hScattered Clouds
11:55 PM24.7 °C21 °C80 %1010.2 hPa16.1 kmENE (60°)24.1 km/hPartly Cloudy
Hourly data recorded from PGUA, located 0 kilometers away from Merizo, Guam







STORIES FROM OUR PARTNERS